Météo par heure à Jurkow

Ce jour, 20 Juin, Dimanche

Heure Température Précipitation Vent Pression Humidité
00:00 +19°C° 0 mm 1 m/s 740 mmHg 92%
01:00 +18°C° 0 mm 1 m/s 740 mmHg 92%
02:00 +18°C° 0 mm 1 m/s 740 mmHg 92%
03:00 +16°C° 0 mm 1 m/s 740 mmHg 92%
04:00 +16°C° 0 mm 1 m/s 740 mmHg 92%
05:00 +19°C° 0 mm 1 m/s 740 mmHg 85%
06:00 +21°C° 0 mm 1 m/s 740 mmHg 78%
07:00 +21°C° 0 mm 2 m/s 740 mmHg 72%
08:00 +24°C° 0 mm 2 m/s 740 mmHg 65%
09:00 +26°C° 0 mm 2 m/s 740 mmHg 59%
10:00 +27°C° 0 mm 2 m/s 740 mmHg 53%
11:00 +28°C° 0 mm 3 m/s 739 mmHg 51%
12:00 +29°C° 0 mm 3 m/s 739 mmHg 50%
13:00 +30°C° 0 mm 3 m/s 739 mmHg 48%
14:00 +29°C° 0 mm 3 m/s 739 mmHg 51%
15:00 +29°C° 0 mm 3 m/s 738 mmHg 53%
16:00 +29°C° 0 mm 3 m/s 738 mmHg 55%
17:00 +27°C° 0 mm 3 m/s 738 mmHg 64%
18:00 +26°C° 0 mm 3 m/s 738 mmHg 73%
19:00 +24°C° 0 mm 2 m/s 738 mmHg 82%
20:00 +23°C° 0 mm 2 m/s 738 mmHg 85%
21:00 +21°C° 0 mm 2 m/s 738 mmHg 89%
22:00 +20°C° 0 mm 1 m/s 738 mmHg 92%
23:00 +20°C° 0 mm 1 m/s 737 mmHg 92%

Demain, 21 Juin, Lundi

Heure Température Précipitation Vent Pression Humidité
00:00 +20°C° 0 mm 1 m/s 737 mmHg 92%
01:00 +19°C° 0 mm 1 m/s 737 mmHg 92%
02:00 +19°C° 0 mm 1 m/s 737 mmHg 93%
03:00 +19°C° 0 mm 1 m/s 736 mmHg 93%
04:00 +18°C° 0 mm 2 m/s 736 mmHg 93%
05:00 +20°C° 0 mm 2 m/s 736 mmHg 86%
06:00 +21°C° 0 mm 2 m/s 736 mmHg 79%
07:00 +24°C° 0 mm 2 m/s 736 mmHg 72%
08:00 +26°C° 0 mm 2 m/s 736 mmHg 66%
09:00 +28°C° 0 mm 2 m/s 736 mmHg 60%
10:00 +29°C° 0 mm 2 m/s 736 mmHg 54%
11:00 +30°C° 0 mm 2 m/s 736 mmHg 52%
12:00 +31°C° 0 mm 2 m/s 736 mmHg 50%
13:00 +31°C° 0 mm 2 m/s 736 mmHg 47%
14:00 +31°C° 0 mm 2 m/s 735 mmHg 50%
15:00 +31°C° 0 mm 2 m/s 735 mmHg 53%
16:00 +30°C° 0 mm 2 m/s 735 mmHg 55%
17:00 +29°C° 0 mm 2 m/s 735 mmHg 63%
18:00 +27°C° 0 mm 2 m/s 735 mmHg 71%
19:00 +26°C° 0 mm 2 m/s 735 mmHg 78%
20:00 +25°C° 0 mm 2 m/s 735 mmHg 81%
21:00 +24°C° 0 mm 2 m/s 735 mmHg 83%
22:00 +21°C° 0 mm 2 m/s 736 mmHg 86%
23:00 +21°C° 0.1 mm 2 m/s 736 mmHg 88%

Après-demain, 22 Juin, Mardi

Heure Température Précipitation Vent Pression Humidité
00:00 +22°C° 0.1 mm 1 m/s 736 mmHg 90%
01:00 +21°C° 0.1 mm 1 m/s 736 mmHg 91%
02:00 +21°C° 0.4 mm 1 m/s 736 mmHg 93%
03:00 +20°C° 0.4 mm 1 m/s 736 mmHg 94%
04:00 +20°C° 0.4 mm 1 m/s 737 mmHg 96%
05:00 +21°C° 0 mm 1 m/s 737 mmHg 92%
06:00 +22°C° 0 mm 1 m/s 737 mmHg 88%
07:00 +23°C° 0 mm 1 m/s 737 mmHg 84%
08:00 +25°C° 0 mm 1 m/s 738 mmHg 77%
09:00 +27°C° 0 mm 1 m/s 738 mmHg 70%
10:00 +28°C° 0 mm 1 m/s 738 mmHg 63%
11:00 +29°C° 0.2 mm 1 m/s 738 mmHg 62%
12:00 +29°C° 0.2 mm 1 m/s 738 mmHg 61%
13:00 +30°C° 0.2 mm 1 m/s 738 mmHg 61%
14:00 +30°C° 0.5 mm 1 m/s 738 mmHg 62%
15:00 +30°C° 0.5 mm 1 m/s 738 mmHg 63%
16:00 +29°C° 0.5 mm 1 m/s 738 mmHg 65%
17:00 +28°C° 0.3 mm 1 m/s 738 mmHg 70%
18:00 +27°C° 0.3 mm 1 m/s 738 mmHg 74%
19:00 +26°C° 0.3 mm 1 m/s 738 mmHg 79%
20:00 +25°C° 0.1 mm 1 m/s 738 mmHg 81%
21:00 +24°C° 0.1 mm 1 m/s 738 mmHg 84%
22:00 +23°C° 0.1 mm 1 m/s 738 mmHg 86%
23:00 +23°C° 0 mm 1 m/s 738 mmHg 88%

23 Juin, Mercredi

Heure Température Précipitation Vent Pression Humidité
00:00 +22°C° 0 mm 1 m/s 738 mmHg 89%
01:00 +22°C° 0 mm 1 m/s 738 mmHg 91%
02:00 +21°C° 0 mm 1 m/s 738 mmHg 91%
03:00 +21°C° 0 mm 1 m/s 738 mmHg 91%
04:00 +21°C° 0 mm 1 m/s 738 mmHg 92%
05:00 +23°C° 0 mm 1 m/s 738 mmHg 87%
06:00 +24°C° 0 mm 1 m/s 739 mmHg 82%
07:00 +26°C° 0 mm 1 m/s 739 mmHg 77%
08:00 +28°C° 0 mm 1 m/s 739 mmHg 70%
09:00 +30°C° 0 mm 1 m/s 739 mmHg 62%
10:00 +32°C° 0 mm 1 m/s 739 mmHg 54%
11:00 +32°C° 0 mm 2 m/s 739 mmHg 53%
12:00 +34°C° 0 mm 2 m/s 739 mmHg 51%
13:00 +34°C° 0 mm 2 m/s 739 mmHg 50%
14:00 +32°C° 0.3 mm 2 m/s 739 mmHg 54%
15:00 +31°C° 0.3 mm 3 m/s 740 mmHg 59%
16:00 +31°C° 0.3 mm 3 m/s 740 mmHg 64%
17:00 +29°C° 0.8 mm 3 m/s 740 mmHg 71%
18:00 +27°C° 0.8 mm 3 m/s 740 mmHg 78%
19:00 +25°C° 0.8 mm 3 m/s 740 mmHg 85%
20:00 +24°C° 1.9 mm 2 m/s 741 mmHg 88%
21:00 +23°C° 1.9 mm 2 m/s 742 mmHg 91%
22:00 +21°C° 1.9 mm 1 m/s 743 mmHg 94%
23:00 +21°C° 0 mm 1 m/s 743 mmHg 95%

24 Juin, Jeudi

Heure Température Précipitation Vent Pression Humidité
00:00 +20°C° 0 mm 2 m/s 742 mmHg 95%
01:00 +19°C° 0 mm 2 m/s 742 mmHg 96%
02:00 +19°C° 0 mm 2 m/s 742 mmHg 96%
03:00 +19°C° 0 mm 1 m/s 742 mmHg 96%
04:00 +19°C° 0 mm 1 m/s 742 mmHg 97%
05:00 +20°C° 0 mm 1 m/s 743 mmHg 94%
06:00 +21°C° 0 mm 1 m/s 743 mmHg 91%
07:00 +22°C° 0 mm 1 m/s 743 mmHg 88%
08:00 +23°C° 0 mm 1 m/s 743 mmHg 85%
09:00 +24°C° 0 mm 1 m/s 743 mmHg 81%
10:00 +25°C° 0 mm 1 m/s 743 mmHg 77%
11:00 +26°C° 0 mm 2 m/s 743 mmHg 74%
12:00 +27°C° 0 mm 2 m/s 742 mmHg 71%
13:00 +29°C° 0 mm 2 m/s 742 mmHg 67%
14:00 +29°C° 0 mm 3 m/s 742 mmHg 68%
15:00 +29°C° 0 mm 3 m/s 741 mmHg 68%
16:00 +30°C° 0 mm 3 m/s 741 mmHg 68%
17:00 +29°C° 0.1 mm 4 m/s 740 mmHg 74%
18:00 +28°C° 0.1 mm 4 m/s 740 mmHg 79%
19:00 +27°C° 0.1 mm 4 m/s 739 mmHg 84%
20:00 +26°C° 0 mm 3 m/s 739 mmHg 85%
21:00 +25°C° 0 mm 3 m/s 739 mmHg 87%
22:00 +24°C° 0 mm 2 m/s 739 mmHg 88%
23:00 +22°C° 1.2 mm 3 m/s 739 mmHg 90%

25 Juin, Vendredi

Heure Température Précipitation Vent Pression Humidité
00:00 +21°C° 1.2 mm 3 m/s 739 mmHg 93%
01:00 +20°C° 1.2 mm 4 m/s 739 mmHg 95%
02:00 +20°C° 0.2 mm 3 m/s 739 mmHg 96%
03:00 +19°C° 0.2 mm 2 m/s 739 mmHg 96%
04:00 +19°C° 0.2 mm 2 m/s 739 mmHg 97%
05:00 +19°C° 0 mm 2 m/s 740 mmHg 96%
06:00 +19°C° 0 mm 3 m/s 740 mmHg 96%
07:00 +19°C° 0 mm 4 m/s 741 mmHg 95%
08:00 +19°C° 0 mm 4 m/s 741 mmHg 91%
09:00 +20°C° 0 mm 4 m/s 742 mmHg 86%
10:00 +20°C° 0 mm 5 m/s 742 mmHg 82%
11:00 +21°C° 0 mm 5 m/s 742 mmHg 80%
12:00 +21°C° 0 mm 5 m/s 742 mmHg 78%
13:00 +21°C° 0 mm 5 m/s 742 mmHg 76%
14:00 +22°C° 0 mm 5 m/s 742 mmHg 74%
15:00 +22°C° 0 mm 4 m/s 742 mmHg 72%
16:00 +22°C° 0 mm 4 m/s 742 mmHg 70%
17:00 +21°C° 0 mm 3 m/s 742 mmHg 73%
18:00 +20°C° 0 mm 3 m/s 742 mmHg 77%
19:00 +20°C° 0 mm 2 m/s 743 mmHg 80%
20:00 +19°C° 0 mm 2 m/s 743 mmHg 81%
21:00 +18°C° 0 mm 2 m/s 743 mmHg 81%
22:00 +18°C° 0 mm 2 m/s 743 mmHg 82%
23:00 +18°C° 0 mm 1 m/s 743 mmHg 84%
Voir plus

Nous avons besoin de votre consentement

Meteoprog et ses fournisseurs de services peuvent stocker et accéder à des données personnelles telles que des cookies, des identifiants d'appareils ou d'autres technologies similaires sur votre appareil et traiter ces données pour personnaliser le contenu et les publicités, ainsi que pour fournir des fonctionnalités de médias sociaux et analyser le trafic.

  • Stocker et/ou accéder à des informations sur votre appareil

    Des cookies, des identifiants d'appareils ou d'autres informations peuvent être stockés ou accessibles sur votre appareil aux fins indiquées ci-dessus.

  • Annonces et contenus personnalisés, mesure des annonces et des contenus, connaissance de l'audience et développement de produits

    Les annonces et le contenu peuvent être personnalisés en fonction d'un profil. D'autres données peuvent être ajoutées pour mieux personnaliser les annonces et le contenu. Les performances des publicités et du contenu peuvent être mesurées. Il est possible d'obtenir des informations sur le public qui a vu les publicités et le contenu. Ces données peuvent être utilisées pour développer ou améliorer l'expérience de l'utilisateur, les systèmes et les logiciels.

En cliquant sur "J'accepte", vous autorisez l'utilisation de cookies, des identifiants d'appareils, des balises web ou d'autres technologies similaires. Vos paramètres peuvent être modifiés dans le navigateur de votre appareil.

Dans certains cas, des intérêts légitimes peuvent être invoqués plutôt qu'un consentement. Vous pouvez en savoir plus à ce sujet dans notre Politique de confidentialité et de cookies.